Hourly Data Report for October 16, 2012

All times are specified in Local Standard Time (LST). Add 1 hour to adjust for Daylight Saving Time where and when it is observed.

ST LEONARD CS
NEW BRUNSWICK

47°09'28.050" N
67°49'55.014" W
245.00 m
810I001
71019
WIY

Download Data

Hourly Data (October 2012)
Hourly Data Report for October 16, 2012
Temp Definition
°C
Dew Point Temp Definition
°C
Rel Hum Definition
%
Wind Dir Definition
10's deg

Wind Spd Definition
km/h
Visibility Definition
km
Stn Press Definition
kPa
Hmdx Definition


Wind Chill Definition


Weather Definition


TIME
00:00 14.9 14.4 97 17 9   97.12     LegendNANA
01:00 12.4 11.3 93 27 7   97.15     LegendNANA
02:00 11.7 11.0 95 26 4   97.23     LegendNANA
03:00 11.5 10.9 96 24 4   97.17     LegendNANA
04:00 10.8 10.0 95   0   97.18     LegendNANA
05:00 10.8 10.3 97 18 4   97.18     LegendNANA
06:00 10.3 9.2 93 28 13   97.13     LegendNANA
07:00 9.4 8.4 93 30 7   97.16     LegendNANA
08:00 9.1 8.1 93   0   97.17     LegendNANA
09:00 9.0 7.5 90 29 6   97.15     LegendNANA
10:00 8.8 7.6 92 31 2   97.08     LegendNANA
11:00 8.7 7.8 94 29 4   97.01     LegendNANA
12:00 8.3 7.0 92 27 6   96.92     LegendNANA
13:00 7.3 6.3 93 28 7   96.80     LegendNANA
14:00 6.6 5.6 93 26 7   96.86     LegendNANA
15:00 6.4 5.6 95 28 4   96.78     LegendNANA
16:00 6.3 5.4 94 29 15   96.78     LegendNANA
17:00 4.7 3.2 90 29 17   96.91     LegendNANA
18:00 4.1 2.5 89 30 17   96.98     LegendNANA
19:00 3.8 1.6 86 29 13   97.10     LegendNANA
20:00 3.1 0.4 82 28 15   97.19     LegendNANA
21:00 2.8 0.6 85 27 11   97.27     LegendNANA
22:00 3.2 0.8 84 27 15   97.31     LegendNANA
23:00 3.0 0.7 85 27 13   97.35     LegendNANA

Notes on Data Quality.

Legend

  • E = Estimated
  • M = Missing
  • NA = Not Available
  • ‡ = Partner data that is not subject to review by the National Climate Archives
Date modified: